Regional Weather Roundup
Issued by NWS

Home | Current Version | Previous Version | Text Only | Print | Product List | Glossary Off
Versions: 1 2 3 4 5 6 7 8 9 10 11 12 13 14 15 16 17 18 19 20 21 22 23 24 25 26 27 28 29 30 31 32 33 34 35 36 37 38 39 40 41 42 43 44 45 46 47 48 49 50

000
ASUS44 KMEG 301600
RWRTN
TENNESSEE HOURLY STATE WEATHER ROUNDUP
NATIONAL WEATHER SERVICE MEMPHIS TN
1100 AM CDT SAT JUL 30 2016

TNZ002-004-019-021-049-052-054-088>092-301700-
WEST TENNESSEE

CITY           SKY/WX    TMP DP  RH WIND       PRES   REMARKS
MEMPHIS INTL   MOSUNNY   83  73  72 SW6       30.02S
NWS MEMPHIS      N/A     80 N/A N/A MISG        N/A
JACKSON        CLOUDY    75  73  93 SE3       30.02F
DYERSBURG      SUNNY     82  72  69 CALM      30.01
UNION CITY     MOSUNNY   81  72  74 W6        30.00S
PARIS          SUNNY     81  72  74 W6        30.03R
LEXINGTON      PTSUNNY   79  72  78 SW6       30.04S
$$

TNZ008-025-027-028-033-062-065-066-301700-
NORTH MIDDLE TENNESSEE

CITY           SKY/WX    TMP DP  RH WIND       PRES   REMARKS
NASHVILLE      PTSUNNY   82  69  64 CALM      30.03S
CLARKSVILLE    MOSUNNY   80  71  74 VRB5      30.02R
COOKEVILLE     PTSUNNY   81  73  78 VRB5      30.05R
CROSSVILLE     MOSUNNY   79  68  69 SW8       30.10R
$$

TNZ061-075-076-078-094-096-097-301700-
SOUTH MIDDLE TENNESSEE

CITY           SKY/WX    TMP DP  RH WIND       PRES   REMARKS
TULLAHOMA      SUNNY     82  70  65 W6        30.07R
WINCHESTER     SUNNY     82  70  65 CALM      30.06S
MCMINNVILLE    SUNNY     82  73  74 W10       30.05S
COLUMBIA       SUNNY     82  82 100 VRB7      30.03S HX  97
SHELBYVILLE    MOSUNNY   84  73  70 W7        30.05S HX  91
$$

TNZ017-018-042-046-047-301700-
NORTHEAST TENNESSEE

CITY           SKY/WX    TMP DP  RH WIND       PRES   REMARKS
TRI CITIES     LGT RAIN  75  70  84 S3        30.08F
$$

TNZ012-013-036-069-073-074-301700-
CENTRAL EAST TENNESSEE

CITY           SKY/WX    TMP DP  RH WIND       PRES   REMARKS
KNOXVILLE      CLOUDY    81  71  71 SW5       30.04S
OAK RIDGE      MOSUNNY   83  70  64 VRB7      30.05S
GATLINBURG     MOSUNNY   81  72  74 CALM      30.05S
$$

TNZ083-085-099-301700-
SOUTHEAST TENNESSEE

CITY           SKY/WX    TMP DP  RH WIND       PRES   REMARKS
CHATTANOOGA    PTSUNNY   82  71  69 CALM      30.05S
$$

SKY/WX REPORTED AS FAIR MEANS FEW OR NO CLOUDS BELOW
12 THOUSAND FEET.





USA.gov is the U.S. government's official web portal to all federal, state and local government web resources and services.